Year,Month,Day,Hour,Minute,Value (Times are PST for insolation in W/m^2)
2012,02,28,00,00,0.00
2012,02,28,00,01,0.00
2012,02,28,00,02,0.00
2012,02,28,00,03,0.00
2012,02,28,00,04,0.00
2012,02,28,00,05,0.00
2012,02,28,00,06,0.00
2012,02,28,00,07,0.00
2012,02,28,00,08,0.00
2012,02,28,00,09,0.00
2012,02,28,00,10,0.00
2012,02,28,00,11,0.00
2012,02,28,00,12,0.00
2012,02,28,00,13,0.00
2012,02,28,00,14,0.00
2012,02,28,00,15,0.00
2012,02,28,00,16,0.00
2012,02,28,00,17,0.00
2012,02,28,00,18,0.00
2012,02,28,00,19,0.00
2012,02,28,00,20,0.00
2012,02,28,00,21,0.00
2012,02,28,00,22,0.00
2012,02,28,00,23,0.00
2012,02,28,00,24,0.00
2012,02,28,00,25,0.00
2012,02,28,00,26,0.00
2012,02,28,00,27,0.00
2012,02,28,00,28,0.00
2012,02,28,00,29,0.00
2012,02,28,00,30,0.00
2012,02,28,00,31,0.00
2012,02,28,00,32,0.00
2012,02,28,00,33,0.00
2012,02,28,00,34,0.00
2012,02,28,00,35,0.00
2012,02,28,00,36,0.00
2012,02,28,00,37,0.00
2012,02,28,00,38,0.00
2012,02,28,00,39,0.00
2012,02,28,00,40,0.00
2012,02,28,00,41,0.00
2012,02,28,00,42,0.00
2012,02,28,00,43,0.00
2012,02,28,00,44,0.00
2012,02,28,00,45,0.00
2012,02,28,00,46,0.00
2012,02,28,00,47,0.00
2012,02,28,00,48,0.00
2012,02,28,00,49,0.00
2012,02,28,00,50,0.00
2012,02,28,00,51,0.00
2012,02,28,00,52,0.00
2012,02,28,00,53,0.00
2012,02,28,00,54,0.00
2012,02,28,00,55,0.00
2012,02,28,00,56,0.00
2012,02,28,00,57,0.00
2012,02,28,00,58,0.00
2012,02,28,00,59,0.00
2012,02,28,01,00,0.00
2012,02,28,01,01,0.00
2012,02,28,01,02,0.00
2012,02,28,01,03,0.00
2012,02,28,01,04,0.00
2012,02,28,01,05,0.00
2012,02,28,01,06,0.00
2012,02,28,01,07,0.00
2012,02,28,01,08,0.00
2012,02,28,01,09,0.00
2012,02,28,01,10,0.00
2012,02,28,01,11,0.00
2012,02,28,01,12,0.00
2012,02,28,01,13,0.00
2012,02,28,01,14,0.00
2012,02,28,01,15,0.00
2012,02,28,01,16,0.00
2012,02,28,01,17,0.00
2012,02,28,01,18,0.00
2012,02,28,01,19,0.00
2012,02,28,01,20,0.00
2012,02,28,01,21,0.00
2012,02,28,01,22,0.00
2012,02,28,01,23,0.00
2012,02,28,01,24,0.00
2012,02,28,01,25,0.00
2012,02,28,01,26,0.00
2012,02,28,01,27,0.00
2012,02,28,01,28,0.00
2012,02,28,01,29,0.00
2012,02,28,01,30,0.00
2012,02,28,01,31,0.00
2012,02,28,01,32,0.00
2012,02,28,01,33,0.00
2012,02,28,01,34,0.00
2012,02,28,01,35,0.00
2012,02,28,01,36,0.00
2012,02,28,01,37,0.00
2012,02,28,01,38,0.00
2012,02,28,01,39,0.00
2012,02,28,01,40,0.00
2012,02,28,01,41,0.00
2012,02,28,01,42,0.00
2012,02,28,01,43,0.00
2012,02,28,01,44,0.00
2012,02,28,01,45,0.00
2012,02,28,01,46,0.00
2012,02,28,01,47,0.00
2012,02,28,01,48,0.00
2012,02,28,01,49,0.00
2012,02,28,01,50,0.00
2012,02,28,01,51,0.00
2012,02,28,01,52,0.00
2012,02,28,01,53,0.00
2012,02,28,01,54,0.00
2012,02,28,01,55,0.00
2012,02,28,01,56,0.00
2012,02,28,01,57,0.00
2012,02,28,01,58,0.00
2012,02,28,01,59,0.00
2012,02,28,02,00,0.00
2012,02,28,02,01,0.00
2012,02,28,02,02,0.00
2012,02,28,02,03,0.00
2012,02,28,02,04,0.00
2012,02,28,02,05,0.00
2012,02,28,02,06,0.00
2012,02,28,02,07,0.00
2012,02,28,02,08,0.00
2012,02,28,02,09,0.00
2012,02,28,02,10,0.00
2012,02,28,02,11,0.00
2012,02,28,02,12,0.00
2012,02,28,02,13,0.00
2012,02,28,02,14,0.00
2012,02,28,02,15,0.00
2012,02,28,02,16,0.00
2012,02,28,02,17,0.00
2012,02,28,02,18,0.00
2012,02,28,02,19,0.00
2012,02,28,02,20,0.00
2012,02,28,02,21,0.00
2012,02,28,02,22,0.00
2012,02,28,02,23,0.00
2012,02,28,02,24,0.00
2012,02,28,02,25,0.00
2012,02,28,02,26,0.00
2012,02,28,02,27,0.00
2012,02,28,02,28,0.00
2012,02,28,02,29,0.00
2012,02,28,02,30,0.00
2012,02,28,02,31,0.00
2012,02,28,02,32,0.00
2012,02,28,02,33,0.00
2012,02,28,02,34,0.00
2012,02,28,02,35,0.00
2012,02,28,02,36,0.00
2012,02,28,02,37,0.00
2012,02,28,02,38,0.00
2012,02,28,02,39,0.00
2012,02,28,02,40,0.00
2012,02,28,02,41,0.00
2012,02,28,02,42,0.00
2012,02,28,02,43,0.00
2012,02,28,02,44,0.00
2012,02,28,02,45,0.00
2012,02,28,02,46,0.00
2012,02,28,02,47,0.00
2012,02,28,02,48,0.00
2012,02,28,02,49,0.00
2012,02,28,02,50,0.00
2012,02,28,02,51,0.00
2012,02,28,02,52,0.00
2012,02,28,02,53,0.00
2012,02,28,02,54,0.00
2012,02,28,02,55,0.00
2012,02,28,02,56,0.00
2012,02,28,02,57,0.00
2012,02,28,02,58,0.00
2012,02,28,02,59,0.00
2012,02,28,03,00,0.00
2012,02,28,03,01,0.00
2012,02,28,03,02,0.00
2012,02,28,03,03,0.00
2012,02,28,03,04,0.00
2012,02,28,03,05,0.00
2012,02,28,03,06,0.00
2012,02,28,03,07,0.00
2012,02,28,03,08,0.00
2012,02,28,03,09,0.00
2012,02,28,03,10,0.00
2012,02,28,03,11,0.00
2012,02,28,03,12,0.00
2012,02,28,03,13,0.00
2012,02,28,03,14,0.00
2012,02,28,03,15,0.00
2012,02,28,03,16,0.00
2012,02,28,03,17,0.00
2012,02,28,03,18,0.00
2012,02,28,03,19,0.00
2012,02,28,03,20,0.00
2012,02,28,03,21,0.00
2012,02,28,03,22,0.00
2012,02,28,03,23,0.00
2012,02,28,03,24,0.00
2012,02,28,03,25,0.00
2012,02,28,03,26,0.00
2012,02,28,03,27,0.00
2012,02,28,03,28,0.00
2012,02,28,03,29,0.00
2012,02,28,03,30,0.00
2012,02,28,03,31,0.00
2012,02,28,03,32,0.00
2012,02,28,03,33,0.00
2012,02,28,03,34,0.00
2012,02,28,03,35,0.00
2012,02,28,03,36,0.00
2012,02,28,03,37,0.00
2012,02,28,03,38,0.00
2012,02,28,03,39,0.00
2012,02,28,03,40,0.00
2012,02,28,03,41,0.00
2012,02,28,03,42,0.00
2012,02,28,03,43,0.00
2012,02,28,03,44,0.00
2012,02,28,03,45,0.00
2012,02,28,03,46,0.00
2012,02,28,03,47,0.00
2012,02,28,03,48,0.00
2012,02,28,03,49,0.00
2012,02,28,03,50,0.00
2012,02,28,03,51,0.00
2012,02,28,03,52,0.00
2012,02,28,03,53,0.00
2012,02,28,03,54,0.00
2012,02,28,03,55,0.00
2012,02,28,03,56,0.00
2012,02,28,03,57,0.00
2012,02,28,03,58,0.00
2012,02,28,03,59,0.00
2012,02,28,04,00,0.00
2012,02,28,04,01,0.00
2012,02,28,04,02,0.00
2012,02,28,04,03,0.00
2012,02,28,04,04,0.00
2012,02,28,04,05,0.00
2012,02,28,04,06,0.00
2012,02,28,04,07,0.00
2012,02,28,04,08,0.00
2012,02,28,04,09,0.00
2012,02,28,04,10,0.00
2012,02,28,04,11,0.00
2012,02,28,04,12,0.00
2012,02,28,04,13,0.00
2012,02,28,04,14,0.00
2012,02,28,04,15,0.00
2012,02,28,04,16,0.00
2012,02,28,04,17,0.00
2012,02,28,04,18,0.00
2012,02,28,04,19,0.00
2012,02,28,04,20,0.00
2012,02,28,04,21,0.00
2012,02,28,04,22,0.00
2012,02,28,04,23,0.00
2012,02,28,04,24,0.00
2012,02,28,04,25,0.00
2012,02,28,04,26,0.00
2012,02,28,04,27,0.00
2012,02,28,04,28,0.00
2012,02,28,04,29,0.00
2012,02,28,04,30,0.00
2012,02,28,04,31,0.00
2012,02,28,04,32,0.00
2012,02,28,04,33,0.00
2012,02,28,04,34,0.00
2012,02,28,04,35,0.00
2012,02,28,04,36,0.00
2012,02,28,04,37,0.00
2012,02,28,04,38,0.00
2012,02,28,04,39,0.00
2012,02,28,04,40,0.00
2012,02,28,04,41,0.00
2012,02,28,04,42,0.00
2012,02,28,04,43,0.00
2012,02,28,04,44,0.00
2012,02,28,04,45,0.00
2012,02,28,04,46,0.00
2012,02,28,04,47,0.00
2012,02,28,04,48,0.00
2012,02,28,04,49,0.00
2012,02,28,04,50,0.00
2012,02,28,04,51,0.00
2012,02,28,04,52,0.00
2012,02,28,04,53,0.00
2012,02,28,04,54,0.00
2012,02,28,04,55,0.00
2012,02,28,04,56,0.00
2012,02,28,04,57,0.00
2012,02,28,04,58,0.00
2012,02,28,04,59,0.00
2012,02,28,05,00,0.00
2012,02,28,05,01,0.00
2012,02,28,05,02,0.00
2012,02,28,05,03,0.00
2012,02,28,05,04,0.00
2012,02,28,05,05,0.00
2012,02,28,05,06,0.00
2012,02,28,05,07,0.00
2012,02,28,05,08,0.00
2012,02,28,05,09,0.00
2012,02,28,05,10,0.00
2012,02,28,05,11,0.00
2012,02,28,05,12,0.00
2012,02,28,05,13,0.00
2012,02,28,05,14,0.00
2012,02,28,05,15,0.00
2012,02,28,05,16,0.00
2012,02,28,05,17,0.00
2012,02,28,05,18,0.00
2012,02,28,05,19,0.00
2012,02,28,05,20,0.00
2012,02,28,05,21,0.00
2012,02,28,05,22,0.00
2012,02,28,05,23,0.00
2012,02,28,05,24,0.00
2012,02,28,05,25,0.00
2012,02,28,05,26,0.00
2012,02,28,05,27,0.00
2012,02,28,05,28,0.00
2012,02,28,05,29,0.00
2012,02,28,05,30,0.00
2012,02,28,05,31,0.00
2012,02,28,05,32,0.00
2012,02,28,05,33,0.00
2012,02,28,05,34,0.00
2012,02,28,05,35,0.00
2012,02,28,05,36,0.00
2012,02,28,05,37,0.00
2012,02,28,05,38,0.00
2012,02,28,05,39,0.00
2012,02,28,05,40,0.00
2012,02,28,05,41,0.00
2012,02,28,05,42,0.00
2012,02,28,05,43,0.00
2012,02,28,05,44,0.00
2012,02,28,05,45,0.00
2012,02,28,05,46,0.00
2012,02,28,05,47,0.00
2012,02,28,05,48,0.00
2012,02,28,05,49,0.00
2012,02,28,05,50,0.00
2012,02,28,05,51,0.00
2012,02,28,05,52,0.00
2012,02,28,05,53,0.00
2012,02,28,05,54,0.00
2012,02,28,05,55,0.00
2012,02,28,05,56,0.00
2012,02,28,05,57,0.00
2012,02,28,05,58,0.00
2012,02,28,05,59,0.00
2012,02,28,06,00,0.00
2012,02,28,06,01,0.00
2012,02,28,06,02,0.00
2012,02,28,06,03,0.00
2012,02,28,06,04,0.00
2012,02,28,06,05,0.00
2012,02,28,06,06,0.00
2012,02,28,06,07,0.00
2012,02,28,06,08,0.00
2012,02,28,06,09,0.00
2012,02,28,06,10,0.00
2012,02,28,06,11,0.00
2012,02,28,06,12,0.00
2012,02,28,06,13,0.00
2012,02,28,06,14,0.00
2012,02,28,06,15,0.00
2012,02,28,06,16,0.00
2012,02,28,06,17,0.00
2012,02,28,06,18,0.00
2012,02,28,06,19,0.00
2012,02,28,06,20,0.00
2012,02,28,06,21,0.00
2012,02,28,06,22,0.00
2012,02,28,06,23,0.00
2012,02,28,06,24,0.00
2012,02,28,06,25,0.00
2012,02,28,06,26,0.00
2012,02,28,06,27,0.00
2012,02,28,06,28,0.00
2012,02,28,06,29,0.00
2012,02,28,06,30,0.00
2012,02,28,06,31,0.00
2012,02,28,06,32,0.00
2012,02,28,06,33,0.00
2012,02,28,06,34,0.00
2012,02,28,06,35,0.00
2012,02,28,06,36,0.00
2012,02,28,06,37,0.00
2012,02,28,06,38,0.00
2012,02,28,06,39,0.00
2012,02,28,06,40,0.00
2012,02,28,06,41,0.00
2012,02,28,06,42,0.00
2012,02,28,06,43,0.00
2012,02,28,06,44,0.00
2012,02,28,06,45,0.00
2012,02,28,06,46,0.00
2012,02,28,06,47,0.00
2012,02,28,06,48,0.00
2012,02,28,06,49,0.00
2012,02,28,06,50,0.00
2012,02,28,06,51,0.00
2012,02,28,06,52,0.00
2012,02,28,06,53,0.00
2012,02,28,06,54,0.00
2012,02,28,06,55,0.00
2012,02,28,06,56,0.00
2012,02,28,06,57,0.00
2012,02,28,06,58,0.00
2012,02,28,06,59,0.00
2012,02,28,07,00,0.00
2012,02,28,07,01,0.00
2012,02,28,07,02,0.00
2012,02,28,07,03,0.00
2012,02,28,07,04,0.00
2012,02,28,07,05,4.80
2012,02,28,07,06,5.00
2012,02,28,07,07,5.00
2012,02,28,07,08,5.00
2012,02,28,07,09,6.20
2012,02,28,07,10,7.00
2012,02,28,07,11,7.00
2012,02,28,07,12,7.00
2012,02,28,07,13,7.00
2012,02,28,07,14,8.00
2012,02,28,07,15,9.00
2012,02,28,07,16,9.00
2012,02,28,07,17,10.90
2012,02,28,07,18,11.00
2012,02,28,07,19,11.00
2012,02,28,07,20,11.50
2012,02,28,07,21,12.00
2012,02,28,07,22,12.00
2012,02,28,07,23,12.00
2012,02,28,07,24,12.00
2012,02,28,07,25,12.90
2012,02,28,07,26,14.00
2012,02,28,07,27,14.00
2012,02,28,07,28,14.00
2012,02,28,07,29,14.00
2012,02,28,07,30,14.00
2012,02,28,07,31,14.00
2012,02,28,07,32,14.00
2012,02,28,07,33,15.40
2012,02,28,07,34,16.00
2012,02,28,07,35,16.00
2012,02,28,07,36,16.60
2012,02,28,07,37,18.00
2012,02,28,07,38,18.00
2012,02,28,07,39,18.00
2012,02,28,07,40,18.00
2012,02,28,07,41,19.00
2012,02,28,07,42,19.00
2012,02,28,07,43,19.00
2012,02,28,07,44,19.00
2012,02,28,07,45,19.00
2012,02,28,07,46,19.00
2012,02,28,07,47,19.40
2012,02,28,07,48,21.00
2012,02,28,07,49,21.00
2012,02,28,07,50,21.00
2012,02,28,07,51,22.60
2012,02,28,07,52,24.80
2012,02,28,07,53,25.20
2012,02,28,07,54,26.80
2012,02,28,07,55,28.00
2012,02,28,07,56,29.40
2012,02,28,07,57,31.70
2012,02,28,07,58,33.30
2012,02,28,07,59,37.40
2012,02,28,08,00,39.40
2012,02,28,08,01,42.30
2012,02,28,08,02,45.40
2012,02,28,08,03,48.50
2012,02,28,08,04,51.30
2012,02,28,08,05,55.00
2012,02,28,08,06,59.70
2012,02,28,08,07,63.60
2012,02,28,08,08,68.50
2012,02,28,08,09,73.50
2012,02,28,08,10,77.50
2012,02,28,08,11,81.50
2012,02,28,08,12,83.00
2012,02,28,08,13,83.00
2012,02,28,08,14,83.00
2012,02,28,08,15,81.30
2012,02,28,08,16,78.70
2012,02,28,08,17,77.00
2012,02,28,08,18,78.00
2012,02,28,08,19,81.30
2012,02,28,08,20,83.70
2012,02,28,08,21,84.10
2012,02,28,08,22,85.70
2012,02,28,08,23,84.00
2012,02,28,08,24,84.00
2012,02,28,08,25,84.00
2012,02,28,08,26,84.00
2012,02,28,08,27,84.10
2012,02,28,08,28,86.00
2012,02,28,08,29,87.40
2012,02,28,08,30,91.40
2012,02,28,08,31,95.40
2012,02,28,08,32,99.30
2012,02,28,08,33,104.70
2012,02,28,08,34,109.90
2012,02,28,08,35,114.20
2012,02,28,08,36,118.60
2012,02,28,08,37,123.60
2012,02,28,08,38,127.40
2012,02,28,08,39,132.10
2012,02,28,08,40,136.30
2012,02,28,08,41,145.60
2012,02,28,08,42,164.00
2012,02,28,08,43,181.30
2012,02,28,08,44,180.10
2012,02,28,08,45,177.80
2012,02,28,08,46,176.50
2012,02,28,08,47,178.40
2012,02,28,08,48,177.40
2012,02,28,08,49,169.90
2012,02,28,08,50,163.70
2012,02,28,08,51,163.50
2012,02,28,08,52,168.50
2012,02,28,08,53,173.80
2012,02,28,08,54,173.90
2012,02,28,08,55,174.80
2012,02,28,08,56,178.60
2012,02,28,08,57,173.00
2012,02,28,08,58,166.40
2012,02,28,08,59,163.60
2012,02,28,09,00,162.60
2012,02,28,09,01,164.50
2012,02,28,09,02,163.40
2012,02,28,09,03,167.40
2012,02,28,09,04,169.70
2012,02,28,09,05,172.40
2012,02,28,09,06,175.20
2012,02,28,09,07,176.00
2012,02,28,09,08,178.80
2012,02,28,09,09,181.30
2012,02,28,09,10,181.30
2012,02,28,09,11,175.30
2012,02,28,09,12,171.30
2012,02,28,09,13,171.80
2012,02,28,09,14,175.90
2012,02,28,09,15,179.70
2012,02,28,09,16,172.90
2012,02,28,09,17,170.00
2012,02,28,09,18,167.70
2012,02,28,09,19,170.10
2012,02,28,09,20,180.60
2012,02,28,09,21,181.00
2012,02,28,09,22,185.70
2012,02,28,09,23,196.10
2012,02,28,09,24,199.70
2012,02,28,09,25,223.30
2012,02,28,09,26,237.30
2012,02,28,09,27,243.00
2012,02,28,09,28,244.20
2012,02,28,09,29,245.00
2012,02,28,09,30,241.90
2012,02,28,09,31,235.00
2012,02,28,09,32,229.90
2012,02,28,09,33,229.30
2012,02,28,09,34,227.80
2012,02,28,09,35,222.70
2012,02,28,09,36,227.50
2012,02,28,09,37,237.80
2012,02,28,09,38,248.20
2012,02,28,09,39,258.00
2012,02,28,09,40,258.90
2012,02,28,09,41,261.10
2012,02,28,09,42,262.00
2012,02,28,09,43,263.60
2012,02,28,09,44,258.30
2012,02,28,09,45,248.00
2012,02,28,09,46,244.00
2012,02,28,09,47,249.50
2012,02,28,09,48,261.20
2012,02,28,09,49,268.60
2012,02,28,09,50,269.40
2012,02,28,09,51,271.30
2012,02,28,09,52,275.00
2012,02,28,09,53,278.00
2012,02,28,09,54,278.00
2012,02,28,09,55,276.30
2012,02,28,09,56,277.50
2012,02,28,09,57,273.40
2012,02,28,09,58,264.30
2012,02,28,09,59,253.60
2012,02,28,10,00,245.10
2012,02,28,10,01,238.80
2012,02,28,10,02,233.00
2012,02,28,10,03,228.80
2012,02,28,10,04,226.00
2012,02,28,10,05,225.00
2012,02,28,10,06,225.00
2012,02,28,10,07,225.00
2012,02,28,10,08,225.50
2012,02,28,10,09,226.20
2012,02,28,10,10,221.00
2012,02,28,10,11,215.30
2012,02,28,10,12,211.50
2012,02,28,10,13,208.70
2012,02,28,10,14,206.70
2012,02,28,10,15,206.00
2012,02,28,10,16,204.80
2012,02,28,10,17,205.40
2012,02,28,10,18,206.00
2012,02,28,10,19,207.50
2012,02,28,10,20,211.90
2012,02,28,10,21,216.80
2012,02,28,10,22,221.80
2012,02,28,10,23,227.40
2012,02,28,10,24,236.40
2012,02,28,10,25,249.20
2012,02,28,10,26,257.70
2012,02,28,10,27,270.40
2012,02,28,10,28,287.10
2012,02,28,10,29,303.00
2012,02,28,10,30,311.20
2012,02,28,10,31,324.50
2012,02,28,10,32,326.40
2012,02,28,10,33,331.00
2012,02,28,10,34,329.40
2012,02,28,10,35,340.00
2012,02,28,10,36,318.80
2012,02,28,10,37,326.80
2012,02,28,10,38,346.30
2012,02,28,10,39,357.20
2012,02,28,10,40,366.60
2012,02,28,10,41,383.90
2012,02,28,10,42,399.30
2012,02,28,10,43,396.50
2012,02,28,10,44,350.90
2012,02,28,10,45,320.10
2012,02,28,10,46,318.70
2012,02,28,10,47,301.30
2012,02,28,10,48,262.00
2012,02,28,10,49,249.00
2012,02,28,10,50,252.30
2012,02,28,10,51,258.30
2012,02,28,10,52,252.20
2012,02,28,10,53,248.50
2012,02,28,10,54,251.10
2012,02,28,10,55,261.10
2012,02,28,10,56,272.80
2012,02,28,10,57,272.30
2012,02,28,10,58,269.60
2012,02,28,10,59,267.30
2012,02,28,11,00,263.00
2012,02,28,11,01,257.70
2012,02,28,11,02,257.00
2012,02,28,11,03,254.60
2012,02,28,11,04,251.50
2012,02,28,11,05,253.00
2012,02,28,11,06,258.30
2012,02,28,11,07,260.00
2012,02,28,11,08,260.00
2012,02,28,11,09,260.00
2012,02,28,11,10,257.80
2012,02,28,11,11,248.30
2012,02,28,11,12,236.10
2012,02,28,11,13,230.40
2012,02,28,11,14,225.10
2012,02,28,11,15,221.10
2012,02,28,11,16,216.90
2012,02,28,11,17,214.10
2012,02,28,11,18,212.50
2012,02,28,11,19,209.50
2012,02,28,11,20,206.50
2012,02,28,11,21,204.70
2012,02,28,11,22,204.00
2012,02,28,11,23,202.30
2012,02,28,11,24,204.00
2012,02,28,11,25,204.80
2012,02,28,11,26,206.50
2012,02,28,11,27,209.70
2012,02,28,11,28,212.70
2012,02,28,11,29,216.00
2012,02,28,11,30,218.50
2012,02,28,11,31,220.40
2012,02,28,11,32,220.50
2012,02,28,11,33,220.00
2012,02,28,11,34,218.40
2012,02,28,11,35,215.80
2012,02,28,11,36,213.00
2012,02,28,11,37,210.10
2012,02,28,11,38,207.30
2012,02,28,11,39,204.60
2012,02,28,11,40,200.50
2012,02,28,11,41,199.00
2012,02,28,11,42,199.00
2012,02,28,11,43,199.00
2012,02,28,11,44,197.80
2012,02,28,11,45,198.50
2012,02,28,11,46,199.00
2012,02,28,11,47,199.00
2012,02,28,11,48,198.30
2012,02,28,11,49,197.00
2012,02,28,11,50,197.00
2012,02,28,11,51,198.50
2012,02,28,11,52,199.00
2012,02,28,11,53,200.70
2012,02,28,11,54,205.00
2012,02,28,11,55,208.90
2012,02,28,11,56,212.90
2012,02,28,11,57,217.10
2012,02,28,11,58,219.80
2012,02,28,11,59,220.00
2012,02,28,12,00,218.40
2012,02,28,12,01,214.90
2012,02,28,12,02,212.00
2012,02,28,12,03,209.40
2012,02,28,12,04,206.80
2012,02,28,12,05,204.00
2012,02,28,12,06,203.20
2012,02,28,12,07,202.00
2012,02,28,12,08,200.60
2012,02,28,12,09,200.00
2012,02,28,12,10,200.00
2012,02,28,12,11,201.00
2012,02,28,12,12,205.20
2012,02,28,12,13,209.30
2012,02,28,12,14,213.10
2012,02,28,12,15,215.70
2012,02,28,12,16,216.00
2012,02,28,12,17,215.40
2012,02,28,12,18,213.50
2012,02,28,12,19,210.70
2012,02,28,12,20,206.90
2012,02,28,12,21,202.50
2012,02,28,12,22,198.00
2012,02,28,12,23,192.10
2012,02,28,12,24,188.10
2012,02,28,12,25,183.00
2012,02,28,12,26,178.80
2012,02,28,12,27,174.40
2012,02,28,12,28,171.80
2012,02,28,12,29,170.40
2012,02,28,12,30,167.20
2012,02,28,12,31,163.10
2012,02,28,12,32,157.60
2012,02,28,12,33,151.00
2012,02,28,12,34,140.50
2012,02,28,12,35,132.10
2012,02,28,12,36,123.80
2012,02,28,12,37,115.60
2012,02,28,12,38,108.30
2012,02,28,12,39,103.90
2012,02,28,12,40,99.30
2012,02,28,12,41,96.30
2012,02,28,12,42,95.00
2012,02,28,12,43,93.60
2012,02,28,12,44,93.00
2012,02,28,12,45,91.00
2012,02,28,12,46,90.00
2012,02,28,12,47,90.00
2012,02,28,12,48,90.00
2012,02,28,12,49,90.00
2012,02,28,12,50,90.00
2012,02,28,12,51,88.10
2012,02,28,12,52,87.50
2012,02,28,12,53,84.80
2012,02,28,12,54,81.90
2012,02,28,12,55,79.60
2012,02,28,12,56,77.40
2012,02,28,12,57,75.80
2012,02,28,12,58,73.40
2012,02,28,12,59,72.00
2012,02,28,13,00,70.90
2012,02,28,13,01,70.00
2012,02,28,13,02,71.70
2012,02,28,13,03,72.30
2012,02,28,13,04,74.60
2012,02,28,13,05,76.50
2012,02,28,13,06,78.20
2012,02,28,13,07,80.50
2012,02,28,13,08,82.80
2012,02,28,13,09,84.70
2012,02,28,13,10,88.60
2012,02,28,13,11,90.00
2012,02,28,13,12,90.60
2012,02,28,13,13,92.50
2012,02,28,13,14,94.90
2012,02,28,13,15,97.20
2012,02,28,13,16,99.40
2012,02,28,13,17,103.00
2012,02,28,13,18,104.70
2012,02,28,13,19,106.60
2012,02,28,13,20,110.80
2012,02,28,13,21,113.70
2012,02,28,13,22,117.50
2012,02,28,13,23,121.60
2012,02,28,13,24,125.60
2012,02,28,13,25,127.00
2012,02,28,13,26,128.00
2012,02,28,13,27,128.00
2012,02,28,13,28,128.00
2012,02,28,13,29,128.00
2012,02,28,13,30,128.00
2012,02,28,13,31,127.20
2012,02,28,13,32,122.90
2012,02,28,13,33,120.70
2012,02,28,13,34,119.20
2012,02,28,13,35,116.90
2012,02,28,13,36,117.40
2012,02,28,13,37,118.00
2012,02,28,13,38,120.40
2012,02,28,13,39,124.10
2012,02,28,13,40,128.30
2012,02,28,13,41,131.10
2012,02,28,13,42,132.00
2012,02,28,13,43,133.70
2012,02,28,13,44,132.00
2012,02,28,13,45,131.40
2012,02,28,13,46,129.00
2012,02,28,13,47,128.00
2012,02,28,13,48,129.50
2012,02,28,13,49,131.80
2012,02,28,13,50,134.00
2012,02,28,13,51,134.00
2012,02,28,13,52,133.00
2012,02,28,13,53,132.00
2012,02,28,13,54,132.00
2012,02,28,13,55,133.90
2012,02,28,13,56,135.40
2012,02,28,13,57,137.60
2012,02,28,13,58,139.00
2012,02,28,13,59,137.70
2012,02,28,14,00,137.00
2012,02,28,14,01,137.20
2012,02,28,14,02,139.90
2012,02,28,14,03,146.50
2012,02,28,14,04,152.90
2012,02,28,14,05,159.60
2012,02,28,14,06,166.00
2012,02,28,14,07,172.30
2012,02,28,14,08,179.20
2012,02,28,14,09,185.00
2012,02,28,14,10,190.60
2012,02,28,14,11,202.10
2012,02,28,14,12,223.50
2012,02,28,14,13,215.40
2012,02,28,14,14,221.30
2012,02,28,14,15,230.50
2012,02,28,14,16,231.10
2012,02,28,14,17,223.60
2012,02,28,14,18,221.30
2012,02,28,14,19,220.90
2012,02,28,14,20,220.00
2012,02,28,14,21,220.00
2012,02,28,14,22,218.90
2012,02,28,14,23,218.00
2012,02,28,14,24,218.00
2012,02,28,14,25,215.70
2012,02,28,14,26,213.70
2012,02,28,14,27,211.30
2012,02,28,14,28,207.80
2012,02,28,14,29,206.30
2012,02,28,14,30,202.40
2012,02,28,14,31,199.50
2012,02,28,14,32,194.70
2012,02,28,14,33,186.70
2012,02,28,14,34,180.60
2012,02,28,14,35,176.80
2012,02,28,14,36,178.00
2012,02,28,14,37,182.00
2012,02,28,14,38,186.70
2012,02,28,14,39,188.00
2012,02,28,14,40,186.70
2012,02,28,14,41,187.50
2012,02,28,14,42,193.30
2012,02,28,14,43,202.90
2012,02,28,14,44,204.60
2012,02,28,14,45,198.30
2012,02,28,14,46,190.50
2012,02,28,14,47,186.40
2012,02,28,14,48,178.90
2012,02,28,14,49,173.50
2012,02,28,14,50,172.00
2012,02,28,14,51,172.00
2012,02,28,14,52,176.00
2012,02,28,14,53,176.40
2012,02,28,14,54,174.10
2012,02,28,14,55,174.50
2012,02,28,14,56,176.80
2012,02,28,14,57,174.70
2012,02,28,14,58,171.30
2012,02,28,14,59,167.70
2012,02,28,15,00,172.30
2012,02,28,15,01,182.00
2012,02,28,15,02,186.20
2012,02,28,15,03,188.00
2012,02,28,15,04,182.80
2012,02,28,15,05,174.90
2012,02,28,15,06,168.30
2012,02,28,15,07,164.10
2012,02,28,15,08,159.00
2012,02,28,15,09,149.80
2012,02,28,15,10,137.30
2012,02,28,15,11,123.50
2012,02,28,15,12,111.50
2012,02,28,15,13,103.40
2012,02,28,15,14,99.10
2012,02,28,15,15,97.40
2012,02,28,15,16,95.50
2012,02,28,15,17,95.10
2012,02,28,15,18,97.20
2012,02,28,15,19,98.00
2012,02,28,15,20,96.60
2012,02,28,15,21,89.30
2012,02,28,15,22,80.60
2012,02,28,15,23,74.00
2012,02,28,15,24,67.70
2012,02,28,15,25,61.20
2012,02,28,15,26,55.90
2012,02,28,15,27,52.00
2012,02,28,15,28,47.70
2012,02,28,15,29,45.90
2012,02,28,15,30,43.60
2012,02,28,15,31,41.20
2012,02,28,15,32,39.50
2012,02,28,15,33,36.30
2012,02,28,15,34,33.30
2012,02,28,15,35,31.80
2012,02,28,15,36,29.50
2012,02,28,15,37,27.20
2012,02,28,15,38,26.00
2012,02,28,15,39,25.30
2012,02,28,15,40,25.00
2012,02,28,15,41,22.70
2012,02,28,15,42,21.00
2012,02,28,15,43,20.10
2012,02,28,15,44,18.50
2012,02,28,15,45,18.00
2012,02,28,15,46,18.00
2012,02,28,15,47,18.00
2012,02,28,15,48,17.40
2012,02,28,15,49,16.00
2012,02,28,15,50,14.90
2012,02,28,15,51,12.60
2012,02,28,15,52,12.00
2012,02,28,15,53,12.00
2012,02,28,15,54,12.00
2012,02,28,15,55,12.00
2012,02,28,15,56,13.20
2012,02,28,15,57,14.00
2012,02,28,15,58,16.10
2012,02,28,15,59,19.00
2012,02,28,16,00,19.00
2012,02,28,16,01,19.00
2012,02,28,16,02,20.30
2012,02,28,16,03,22.60
2012,02,28,16,04,23.00
2012,02,28,16,05,23.00
2012,02,28,16,06,23.70
2012,02,28,16,07,25.50
2012,02,28,16,08,26.00
2012,02,28,16,09,27.50
2012,02,28,16,10,28.20
2012,02,28,16,11,30.70
2012,02,28,16,12,33.80
2012,02,28,16,13,35.00
2012,02,28,16,14,33.60
2012,02,28,16,15,33.00
2012,02,28,16,16,33.00
2012,02,28,16,17,33.00
2012,02,28,16,18,33.00
2012,02,28,16,19,33.00
2012,02,28,16,20,32.30
2012,02,28,16,21,32.00
2012,02,28,16,22,31.70
2012,02,28,16,23,30.00
2012,02,28,16,24,29.20
2012,02,28,16,25,28.00
2012,02,28,16,26,28.00
2012,02,28,16,27,28.00
2012,02,28,16,28,26.00
2012,02,28,16,29,26.00
2012,02,28,16,30,26.00
2012,02,28,16,31,26.00
2012,02,28,16,32,26.00
2012,02,28,16,33,27.70
2012,02,28,16,34,28.00
2012,02,28,16,35,28.00
2012,02,28,16,36,27.00
2012,02,28,16,37,26.00
2012,02,28,16,38,25.20
2012,02,28,16,39,23.20
2012,02,28,16,40,23.40
2012,02,28,16,41,25.30
2012,02,28,16,42,27.00
2012,02,28,16,43,29.20
2012,02,28,16,44,31.60
2012,02,28,16,45,33.10
2012,02,28,16,46,35.00
2012,02,28,16,47,35.70
2012,02,28,16,48,37.00
2012,02,28,16,49,38.20
2012,02,28,16,50,39.00
2012,02,28,16,51,40.10
2012,02,28,16,52,42.50
2012,02,28,16,53,44.90
2012,02,28,16,54,47.60
2012,02,28,16,55,52.30
2012,02,28,16,56,58.80
2012,02,28,16,57,62.90
2012,02,28,16,58,63.00
2012,02,28,16,59,63.90
2012,02,28,17,00,65.00
2012,02,28,17,01,66.30
2012,02,28,17,02,68.70
2012,02,28,17,03,69.10
2012,02,28,17,04,70.00
2012,02,28,17,05,70.90
2012,02,28,17,06,70.90
2012,02,28,17,07,66.50
2012,02,28,17,08,58.90
2012,02,28,17,09,52.30
2012,02,28,17,10,49.00
2012,02,28,17,11,48.10
2012,02,28,17,12,47.00
2012,02,28,17,13,46.30
2012,02,28,17,14,45.90
2012,02,28,17,15,44.00
2012,02,28,17,16,44.00
2012,02,28,17,17,44.90
2012,02,28,17,18,46.00
2012,02,28,17,19,44.50
2012,02,28,17,20,42.10
2012,02,28,17,21,39.80
2012,02,28,17,22,38.30